Location: Chervonnoye
(48.6000°N, 34.4000°E)
Time: 06:39:48
(UTC+00:00)

BEESAT 3 - Pass Details

Date: 14 December 2021
Orbit: 472 x 512 km, 64.9° (Epoch: 22 January)

Event Time Altitude Azimuth Distance (km) Brightness Sun altitude
Rises 16:24:35 0° 270° (W) 2,578 ? -24.9°
Reaches altitude 10° 16:27:29 10° 295° (WNW) 1,708 ? -25.4°
Maximum altitude 16:29:46 15° 331° (NNW) 1,427 ? -25.7°
Enters shadow 16:30:02 15° 336° (NNW) 1,432 ? -25.8°
